Погода в Банфоре

Буркина-Фасо     10°38′49″N   4°45′13″W
темп.,
°C
ветер,
м/с
пор.,
м/с
влажн.,
%
обл.,
%
осадки,
мм/ч
давл.,
гПа
погр.,
м
10 августа, ср
ср1000:00+23ююз2394100 3.2 101391
03:00+22сз1298100 4.8 1012104
06:00+22ююз249868 5.2 1012185
09:00+25ююз478559 0.0 1013632
12:00+30ююз446017 0.1 10121290
15:00+31ююз235584 0.8 10091590
18:00+25ю37856 2.6 1010248
21:00+23юз239012 0.2 101264
11 августа, чт
чт1100:00+23юз279413 0.7 1013200
03:00+22юз289478 0.0 1012271
06:00+21ююз299718 0.0 1013376
09:00+25юз478055 0.0 1014746
12:00+28юз456594 0.1 10131233
15:00+29ююз446073 0.3 10101388
18:00+27ююз357328 0.4 1010280
21:00+24юз24886 0.3 101391
12 августа, пт
пт1200:00+23юз2692100 0.3 1013181
03:00+22зюз279512 0.0 1012264
06:00+21юз289693 0.0 1013301
09:00+26зюз5875100 0.0 1014869
12:00+29з5762100 0.9 10131320
15:00+26з4679100 1.8 1011515
18:00+24зюз2687100 5.1 1012181
21:00+23зюз2591100 8.8 1013113
13 августа, сб
сб1300:00+22ююз2796100 9.3 1013321
03:00+22юз2897100 0.0 1012374
06:00+22юз31096100 0.1 1013581
09:00+23зюз4991100 0.1 1015630
12:00+26зюз467798 1.1 10141078
15:00+26зюз587466 2.9 10121137
18:00+24з378198 3.9 1013579
21:00+23зюз2687100 0.0 1015355
14 августа, вс
вс1400:00+22зюз289096 0.0 1015422
03:00+21зюз289642 0.0 1014409
06:00+21з389476 0.0 1014520
09:00+24з4780100 0.0 1015745
12:00+28зсз456485 0.1 10131347
15:00+29зсз456085 0.1 10101411
18:00+26з247551 0.2 1010161
21:00+24зсз238390 0.0 101268